{"data":{"norad_id":53282,"intl_designator":"2022-086AS","name":"STARLINK-4164","alt_names":[],"object_type":"PAYLOAD","status":"ACTIVE","operator":null,"country":"US","launch_date":"2022-07-24","launch_site_code":"AFETR","launch_vehicle":null,"mission":null,"orbit_class":"UNKNOWN","rcs_meters":null,"size_class":null,"mass_kg":null,"dimensions":null,"purposes":["comms"],"wikipedia_slug":null,"has_3d_model":false,"image_url":null,"decayed_at":null,"tle_current":{"epoch":"2026-09-19T19:40:48.501984Z","epoch_age_seconds":134104,"freshness":"FRESH","line1":"1 53282U 22086AS  26262.82000581  .00001160  00000+0  46596-4 0  9991","line2":"2 53282  53.1613  17.1369 0001043  92.5380 267.5742 15.33550959230714","mean_motion":15.33550959,"eccentricity":0.0001043,"inclination_deg":53.1613,"raan_deg":17.1369,"arg_perigee_deg":92.538,"mean_anomaly_deg":267.5742,"bstar":4.6596e-5,"rev_number":23071,"period_min":93.899716311938,"perigee_km":464.51417023232,"apogee_km":465.94169615739,"semimajor_km":6843.3649331949,"source":"CELESTRAK","updated_at":"2026-09-20T09:00:40.219841Z"}}}